Hourly Data Report for April 29, 2017

All times are specified in Local Standard Time (LST). Add 1 hour to adjust for Daylight Saving Time where and when it is observed.

GRANBY
QUEBEC

45°22'22.000" N
72°46'26.000" W
86.00 m
7022802
MGB

Related Data

No related data is available for this station

Download Data

Hourly Data (April 2017)
Hourly Data Report for April 29, 2017
Temp Definition
°C
Dew Point Temp Definition
°C
Rel Hum Definition
%
Wind Dir Definition
10's deg

Wind Spd Definition
km/h
Visibility Definition
km
Stn Press Definition
kPa
Hmdx Definition


Wind Chill Definition


Weather Definition


TIME
00:00 12.8 3.9 55 22 2   100.33     LegendNANA
01:00 13.5 3.7 51 21 5   100.29     LegendNANA
02:00 13.8 3.6 50 22 3   100.20     LegendNANA
03:00 14.2 4.6 52 21 4   100.19     LegendNANA
04:00 15.7 4.3 47 25 10   100.15     LegendNANA
05:00 14.9 5.5 53 22 5   100.15     LegendNANA
06:00 16.2 6.2 51 24 16   100.16     LegendNANA
07:00 16.0 6.8 54 25 15   100.21     LegendNANA
08:00 16.3 7.2 55 25 17   100.25     LegendNANA
09:00 16.7 7.3 54 25 15   100.21     LegendNANA
10:00 16.8 6.6 51 24 17   100.13     LegendNANA
11:00 17.4 7.3 51 23 18   100.08     LegendNANA
12:00 17.7 7.2 50 26 19   100.07     LegendNANA
13:00 18.6 6.9 46 26 22   100.03     LegendNANA
14:00 18.0 7.1 49 28 18   100.10     LegendNANA
15:00 18.8 2.4 34 28 24   100.19     LegendNANA
16:00 18.2 -0.9 27 28 26   100.23     LegendNANA
17:00 17.7 -0.1 30 28 20   100.37     LegendNANA
18:00 14.8 -0.8 34 33 19   100.55     LegendNANA
19:00 9.7 -1.9 44 34 10   100.78     LegendNANA
20:00 6.9 -2.9 50 35 9   101.04     LegendNANA
21:00 5.6 -3.7 51 36 5   101.19     LegendNANA
22:00 4.7 -3.6 55 35 5   101.21     LegendNANA
23:00 4.2 -3.5 57 33 4   101.26     LegendNANA

Notes on Data Quality.

Legend

  • E = Estimated
  • M = Missing
  • NA = Not Available
  • ‡ = Partner data that is not subject to review by the National Climate Archives
Date modified: